GW5937 Weather Reports


time (UTC)temp
F
wind
direction
speed
knots
gust
knots
rain 1hr
in
rain 24hr
in
rain mn
in
humidity
%
barometer
mb
20260507151404 75 123 3.5 12.2 0.00 0.01 0.01 75 1010.6
20260507151234 75 103 3.5 12.2 0.00 0.01 0.01 75 1010.4
20260507150402 75 178 2.6 12.2 0.00 0.01 0.01 76 1011.2
20260507150229 75 113 2.6 9.6 0.00 0.01 0.01 76 1011.1
20260507145403 74 215 3.5 9.6 0.00 0.01 0.01 77 1010.9
20260507144859 74 123 3.5 9.6 0.00 0.01 0.01 77 1010.3
20260507144358 74 108 4.3 9.6 0.00 0.01 0.01 79 1010.2
20260507144225 74 128 5.2 9.6 0.00 0.01 0.01 81 1010.3
20260507143736 73 164 4.3 9.6 0.00 0.01 0.01 81 1009.6
20260507142857 73 154 3.5 9.6 0.00 0.01 0.01 81 1009.7
20260507142355 73 77 4.3 8.7 0.00 0.01 0.01 85 1009.9
20260507141857 72 89 5.2 13.0 0.01 0.01 0.01 85 1010.0
20260507141356 72 131 5.2 13.0 0.01 0.01 0.01 85 1010.1
20260507140856 71 126 5.2 13.0 0.01 0.01 0.01 85 1009.5
20260507140356 71 115 6.1 13.0 0.01 0.01 0.01 88 1008.5
20260507135856 70 126 5.2 11.3 0.01 0.01 0.01 87 1008.6
20260507135356 70 110 5.2 10.4 0.01 0.01 0.01 88 1009.1
20260507134855 70 108 4.3 10.4 0.01 0.01 0.01 89 1009.0
20260507134358 70 117 2.6 7.8 0.01 0.01 0.01 89 1010.4
20260507133854 70 123 1.7 6.1 0.01 0.01 0.01 89 1010.9
20260507133728 70 130 1.7 5.2 0.01 0.01 0.01 88 1011.2
20260507132841 70 118 0.9 3.5 0.01 0.01 0.01 88 1011.5
20260507132334 71 159 0.9 4.3 0.01 0.01 0.01 87 1011.7
20260507131834 71 185 0.9 4.3 0.00 0.00 0.00 87 1012.1
20260507131334 71 175 1.7 5.2 0.00 0.00 0.00 86 1012.4
20260507130835 71 151 2.6 7.8 0.00 0.00 0.00 84 1012.6
20260507130334 72 213 3.5 7.8 0.00 0.00 0.00 84 1012.8
20260507130210 72 155 3.5 9.6 0.00 0.00 0.00 82 1012.6
20260507125709 72 174 4.3 12.2 0.00 0.00 0.00 82 1012.7
20260507125154 72 173 5.2 12.2 0.00 0.00 0.00 81 1011.9
20260507124331 72 134 5.2 12.2 0.00 0.00 0.00 81 1010.4
20260507123832 71 150 7.0 13.9 0.00 0.00 0.00 83 1009.7
20260507123331 71 111 7.0 13.9 0.00 0.00 0.00 81 1009.1
20260507122829 71 131 7.0 13.9 0.00 0.00 0.00 81 1008.6
20260507122731 71 128 7.0 15.6 0.00 0.00 0.00 81 1008.2
20260507121835 71 80 7.8 15.6 0.00 0.00 0.00 82 1008.4
20260507121329 71 99 7.0 14.8 0.00 0.00 0.00 83 1008.9
20260507120829 70 119 5.2 10.4 0.00 0.00 0.00 83 1009.3
20260507120330 70 107 2.6 7.0 0.00 0.00 0.00 84 1010.3
20260507120159 70 118 1.7 5.2 0.00 0.00 0.00 84 1010.7
20260507115330 70 100 1.7 2.6 0.00 0.00 0.00 84 1011.1
20260507114831 70 120 0.9 2.6 0.00 0.00 0.00 84 1011.3
20260507114329 70 165 0.9 1.7 0.00 0.00 0.00 84 1011.6
20260507113830 70 165 0.9 1.7 0.00 0.00 0.00 83 1011.6
20260507113329 70 160 0.9 2.6 0.00 0.00 0.00 83 1011.7
20260507112830 70 130 1.7 2.6 0.00 0.00 0.00 83 1011.5
20260507112331 70 145 1.7 2.6 0.00 0.00 0.00 83 1011.5
20260507111835 70 130 1.7 2.6 0.00 0.00 0.00 83 1011.4
20260507111335 70 177 0.9 3.5 0.00 0.00 0.00 82 1011.5
20260507110830 70 177 0.9 3.5 0.00 0.00 0.00 82 1011.8
20260507110335 70 177 0.9 6.1 0.00 0.00 0.00 82 1011.9
20260507110201 71 177 0.9 6.1 0.00 0.00 0.00 82 1012.1
20260507105332 71 177 1.7 6.1 0.00 0.00 0.00 82 1012.0
20260507104830 70 161 1.7 6.1 0.00 0.00 0.00 82 1012.1
20260507104330 70 198 0.9 2.6 0.00 0.00 0.00 81 1012.0
20260507103830 70 158 0.9 2.6 0.00 0.00 0.00 82 1012.1
20260507103330 70 190 1.7 5.2 0.00 0.00 0.00 83 1012.0
20260507103201 70 190 1.7 5.2 0.00 0.00 0.00 82 1012.0
20260507102330 71 208 1.7 5.2 0.00 0.00 0.00 83 1012.0
20260507101830 70 148 1.7 5.2 0.00 0.00 0.00 82 1012.0
20260507101328 70 169 2.6 7.8 0.00 0.00 0.00 82 1012.3
20260507100833 70 134 2.6 7.8 0.00 0.00 0.00 82 1012.2
20260507100331 70 202 1.7 7.0 0.00 0.00 0.00 83 1012.5
20260507095830 70 195 2.6 5.2 0.00 0.00 0.00 83 1012.6
20260507095329 70 229 2.6 5.2 0.00 0.00 0.00 83 1012.8
20260507094833 70 189 1.7 4.3 0.00 0.00 0.00 84 1012.8
20260507094331 71 221 1.7 5.2 0.00 0.00 0.00 85 1012.7
20260507093835 71 190 1.7 7.0 0.00 0.00 0.00 85 1012.6
20260507093331 71 175 2.6 7.0 0.00 0.00 0.00 84 1012.7
20260507092831 71 206 2.6 7.0 0.00 0.00 0.00 84 1012.6
20260507092330 71 222 0.9 7.0 0.00 0.00 0.00 84 1012.4
20260507091831 71 196 0.9 1.7 0.00 0.00 0.00 85 1012.2
20260507091705 71 194 0.9 2.6 0.00 0.00 0.00 85 1012.1
20260507090829 71 196 0.9 3.5 0.00 0.00 0.00 85 1011.9
20260507090323 71 206 0.9 3.5 0.00 0.00 0.00 85 1011.8
20260507090149 71 200 0.9 2.6 0.00 0.00 0.00 85 1011.4
20260507085634 71 244 0.9 3.5 0.00 0.00 0.00 85 1011.3
20260507084815 71 214 0.9 3.5 0.00 0.00 0.00 84 1011.1
20260507084315 71 205 0.9 3.5 0.00 0.00 0.00 84 1010.6
20260507083815 71 202 0.0 3.5 0.00 0.00 0.00 84 1010.4
20260507083635 72 173 0.0 1.7 0.00 0.00 0.00 83 1010.4
20260507082815 72 173 0.9 2.6 0.00 0.00 0.00 83 1010.4
20260507082314 72 199 0.9 2.6 0.00 0.00 0.00 83 1010.6
20260507082142 72 211 0.0 1.7 0.00 0.00 0.00 83 1010.3
20260507081311 73 173 0.0 1.7 0.00 0.00 0.00 82 1010.1
20260507080811 73 173 0.9 1.7 0.00 0.00 0.00 81 1010.2
20260507080313 73 154 0.9 3.5 0.00 0.00 0.00 81 1010.2
20260507075811 73 184 0.9 3.5 0.00 0.00 0.00 81 1010.1
20260507075309 73 188 0.9 3.5 0.00 0.00 0.00 80 1009.9
20260507074807 73 174 0.9 3.5 0.00 0.00 0.00 80 1009.8
20260507074310 74 138 1.7 3.5 0.00 0.00 0.00 80 1009.9
20260507073807 74 161 0.9 3.5 0.00 0.00 0.00 80 1009.9
20260507073307 74 184 0.9 7.0 0.00 0.00 0.00 79 1009.8
20260507072807 74 123 1.7 7.0 0.00 0.00 0.00 78 1009.8
20260507072308 74 151 1.7 4.3 0.00 0.00 0.00 78 1010.0
20260507071805 74 151 1.7 6.1 0.00 0.00 0.00 77 1010.2
20260507071306 74 158 1.7 6.1 0.00 0.00 0.00 75 1010.3
20260507070805 74 192 2.6 7.8 0.00 0.00 0.00 75 1010.2
20260507070302 74 229 2.6 7.8 0.00 0.00 0.00 75 1010.2
20260507065803 74 71 3.5 7.8 0.00 0.00 0.00 75 1010.2
20260507065306 74 141 2.6 7.8 0.00 0.00 0.00 75 1010.2
20260507065134 75 152 2.6 7.0 0.00 0.00 0.00 75 1010.2
20260507064301 75 122 3.5 8.7 0.00 0.00 0.00 75 1010.2
20260507063804 75 105 3.5 8.7 0.00 0.00 0.00 74 1010.2
20260507063636 75 123 3.5 8.7 0.00 0.00 0.00 74 1010.2
20260507063135 75 99 3.5 8.7 0.00 0.00 0.00 73 1010.3
20260507062306 75 170 3.5 8.7 0.00 0.00 0.00 73 1010.4
20260507062146 75 130 3.5 8.7 0.00 0.00 0.00 73 1010.6
20260507061303 75 142 3.5 8.7 0.00 0.00 0.00 73 1010.8
20260507060801 75 138 3.5 7.8 0.00 0.00 0.00 73 1010.9
20260507060621 75 117 3.5 7.8 0.00 0.00 0.00 73 1011.0
20260507055801 75 111 3.5 8.7 0.00 0.00 0.00 73 1010.9
20260507055305 75 118 3.5 8.7 0.00 0.00 0.00 73 1010.9
20260507054802 75 126 3.5 7.8 0.00 0.00 0.00 72 1011.0
20260507054301 76 96 4.3 8.7 0.00 0.00 0.00 72 1011.2
20260507053802 75 136 3.5 8.7 0.00 0.00 0.00 72 1011.3
20260507053303 75 173 3.5 8.7 0.00 0.00 0.00 72 1011.5
20260507052801 75 164 3.5 10.4 0.00 0.00 0.00 73 1011.5
20260507052301 76 109 4.3 10.4 0.00 0.00 0.00 72 1011.6
20260507051801 76 150 4.3 10.4 0.00 0.00 0.00 72 1011.6
20260507051300 76 121 4.3 10.4 0.00 0.00 0.00 72 1011.7
20260507050801 76 113 3.5 10.4 0.00 0.00 0.00 72 1011.9
20260507050301 76 121 4.3 10.4 0.00 0.00 0.00 72 1011.8
20260507045801 76 144 4.3 13.0 0.00 0.00 0.00 73 1011.8
20260507045336 76 132 6.1 13.0 0.00 0.00 0.00 73 1011.7
20260507045321 76 128 4.3 13.0 0.00 0.00 0.00 73 1011.8
20260507043801 76 146 6.1 13.9 0.00 0.00 0.00 74 1011.8
20260507043300 76 151 5.2 13.9 0.00 0.00 0.00 74 1011.7
20260507042800 76 163 5.2 13.9 0.00 0.00 0.00 74 1011.7
20260507042306 76 98 6.1 13.0 0.00 0.00 0.00 74 1011.5
20260507042122 76 103 6.1 13.0 0.00 0.00 0.00 74 1011.7
20260507041301 76 171 5.2 13.0 0.00 0.00 0.00 74 1011.8
20260507040801 76 162 5.2 15.6 0.00 0.00 0.00 74 1011.9
20260507040301 76 131 6.1 15.6 0.00 0.00 0.00 73 1011.8
20260507040119 76 146 6.1 14.8 0.00 0.00 0.00 73 1011.7
20260507035301 76 166 7.0 14.8 0.00 0.00 0.00 73 1011.7
20260507034801 76 130 7.8 18.2 0.00 0.00 0.00 72 1011.6
20260507034301 76 121 7.0 18.2 0.00 0.00 0.00 72 1011.6
20260507034126 76 111 7.0 15.6 0.00 0.00 0.00 71 1011.7
20260507033301 76 143 7.0 15.6 0.00 0.00 0.00 72 1011.7
20260507033124 76 165 6.1 18.2 0.00 0.00 0.00 72 1011.7
20260507032305 76 130 6.1 18.2 0.00 0.00 0.00 72 1011.7
20260507031801 76 121 7.0 18.2 0.00 0.00 0.00 73 1011.7
20260507031304 76 121 7.8 18.2 0.00 0.00 0.00 73 1011.6
20260507030929 76 121 7.8 18.2 0.00 0.00 0.00 74 1011.7
20260507025802 76 149 7.0 19.1 0.00 0.00 0.00 75 1011.5
20260507025306 76 156 7.8 19.1 0.00 0.00 0.00 76 1011.5
20260507025132 75 139 7.0 14.8 0.00 0.00 0.00 76 1011.5
20260507024301 75 167 7.8 14.8 0.00 0.00 0.00 76 1011.4
20260507023800 75 128 7.8 14.8 0.00 0.00 0.00 76 1011.3
20260507023304 75 125 7.0 15.6 0.00 0.00 0.00 77 1011.2
20260507023130 75 104 7.0 15.6 0.00 0.00 0.00 77 1011.4
20260507022301 75 135 6.1 20.0 0.00 0.00 0.00 77 1011.5
20260507021759 75 98 6.1 20.0 0.00 0.00 0.00 77 1011.6
20260507021300 75 119 7.0 20.0 0.00 0.00 0.00 77 1011.7
20260507020759 75 146 7.0 20.0 0.00 0.00 0.00 78 1011.7
20260507020258 75 140 7.0 14.8 0.00 0.00 0.00 78 1011.7
20260507015800 75 129 7.0 14.8 0.00 0.00 0.00 77 1011.6
20260507015256 75 138 6.1 14.8 0.00 0.00 0.00 77 1011.6
20260507014755 75 104 5.2 14.8 0.00 0.00 0.00 78 1011.9
20260507014254 75 109 6.1 14.8 0.00 0.00 0.00 78 1011.8
20260507013750 75 155 6.1 14.8 0.00 0.00 0.00 77 1011.9
20260507013250 75 132 6.1 12.2 0.00 0.00 0.00 78 1011.9
20260507012754 75 103 5.2 11.3 0.00 0.00 0.00 78 1012.0
20260507012248 75 114 4.3 10.4 0.00 0.00 0.00 78 1012.2
20260507012120 75 126 5.2 9.6 0.00 0.00 0.00 79 1012.2
20260507011238 75 157 5.2 10.4 0.00 0.00 0.00 79 1012.0
20260507010738 75 107 5.2 9.6 0.00 0.00 0.00 80 1012.0
20260507010236 75 106 5.2 10.4 0.00 0.00 0.00 80 1012.1
20260507005737 75 126 4.3 10.4 0.00 0.00 0.00 80 1012.1
20260507005240 75 81 4.3 9.6 0.00 0.00 0.00 79 1012.0
20260507004737 75 138 4.3 9.6 0.00 0.00 0.00 79 1011.9
20260507004240 75 138 4.3 12.2 0.00 0.00 0.00 79 1012.0
20260507003732 75 90 5.2 12.2 0.00 0.00 0.00 79 1011.6
20260507003231 75 105 6.1 12.2 0.00 0.00 0.00 78 1011.6
20260507002730 75 113 5.2 12.2 0.00 0.00 0.00 78 1011.8
20260507002230 75 135 5.2 10.4 0.00 0.00 0.00 78 1012.0
20260507001731 75 105 5.2 10.4 0.00 0.00 0.00 77 1012.0
20260507001232 75 93 4.3 10.4 0.00 0.00 0.00 77 1011.9
20260507000730 75 103 5.2 10.4 0.00 0.00 0.00 76 1011.8
20260507000601 76 117 5.2 11.3 0.00 0.00 0.00 76 1011.7
20260506235729 76 123 4.3 11.3 0.00 0.00 0.00 75 1011.7
20260506235228 76 113 4.3 10.4 0.00 0.00 0.00 75 1011.7
20260506234730 76 91 5.2 13.0 0.00 0.00 0.00 75 1011.6
20260506234231 76 150 6.1 13.0 0.00 0.00 0.00 74 1011.6
20260506233726 76 100 6.1 13.0 0.00 0.00 0.00 74 1011.5
20260506233547 76 99 5.2 13.0 0.00 0.00 0.00 73 1011.5
20260506232714 77 107 5.2 11.3 0.00 0.00 0.00 73 1011.6
20260506232206 77 103 6.1 13.9 0.00 0.00 0.00 73 1011.5
20260506231705 77 114 6.1 13.9 0.00 0.00 0.00 72 1011.7
20260506231204 78 126 6.1 13.9 0.00 0.00 0.00 71 1011.7
20260506230704 78 132 7.8 13.9 0.00 0.00 0.00 70 1011.7
20260506230204 78 104 7.0 13.9 0.00 0.00 0.00 69 1011.9
20260506225704 79 122 5.2 13.9 0.00 0.00 0.00 69 1011.9
20260506225524 79 78 5.2 15.6 0.00 0.00 0.00 68 1011.8
20260506224702 79 109 5.2 15.6 0.00 0.00 0.00 68 1011.7
20260506224202 79 128 5.2 15.6 0.00 0.00 0.00 68 1011.7
20260506223701 79 125 7.0 15.6 0.00 0.00 0.00 69 1011.8
20260506223207 79 140 7.0 15.6 0.00 0.00 0.00 69 1011.9
20260506222701 79 150 7.0 13.0 0.00 0.00 0.00 69 1011.9
20260506222543 79 123 6.1 13.0 0.00 0.00 0.00 69 1011.9
20260506221702 79 96 5.2 13.0 0.00 0.00 0.00 70 1012.1
20260506221201 79 108 5.2 14.8 0.00 0.00 0.00 71 1012.1
20260506220701 79 103 6.1 14.8 0.00 0.00 0.00 70 1012.0
20260506220202 79 119 7.0 14.8 0.00 0.00 0.00 71 1011.9
20260506215703 79 124 7.0 14.8 0.00 0.00 0.00 71 1011.9
20260506215202 79 94 7.0 13.9 0.00 0.00 0.00 70 1011.8
20260506214701 79 177 7.8 14.8 0.00 0.00 0.00 70 1011.8
20260506214201 79 98 8.7 18.2 0.00 0.00 0.00 70 1011.9
20260506214032 79 107 8.7 18.2 0.00 0.00 0.00 71 1011.9
20260506213205 79 109 7.8 15.6 0.00 0.00 0.00 70 1011.9
20260506212706 80 69 7.8 15.6 0.00 0.00 0.00 70 1012.0
20260506212204 80 83 7.8 14.8 0.00 0.00 0.00 70 1012.0
20260506211701 80 137 7.8 14.8 0.00 0.00 0.00 69 1012.0
20260506211204 80 97 7.8 14.8 0.00 0.00 0.00 68 1012.0
20260506210701 80 134 7.0 14.8 0.00 0.00 0.00 69 1012.2
20260506210202 81 153 7.0 16.5 0.00 0.00 0.00 69 1012.2
20260506205703 80 97 7.0 16.5 0.00 0.00 0.00 69 1012.0
20260506205202 80 62 7.8 16.5 0.00 0.00 0.00 68 1012.1
20260506204704 80 109 7.0 16.5 0.00 0.00 0.00 68 1012.1
20260506204202 81 115 7.0 13.9 0.00 0.00 0.00 67 1012.1
20260506203925 81 151 6.1 13.9 0.00 0.00 0.00 67 1012.1
20260506203200 81 126 6.1 13.9 0.00 0.00 0.00 68 1012.1
20260506202659 81 147 7.8 15.6 0.00 0.00 0.00 67 1012.1
20260506202159 80 99 7.8 15.6 0.00 0.00 0.00 67 1012.2
20260506201658 80 109 7.0 15.6 0.00 0.00 0.00 67 1012.2
20260506201536 81 130 7.8 15.6 0.00 0.00 0.00 66 1012.3
20260506200656 81 118 8.7 15.6 0.00 0.00 0.00 66 1012.3
20260506200524 81 111 8.7 15.6 0.00 0.00 0.00 66 1012.5
20260506195658 81 67 8.7 15.6 0.00 0.00 0.00 66 1012.4
20260506195200 81 138 7.0 15.6 0.00 0.00 0.00 66 1012.4
20260506194657 81 136 6.1 15.6 0.00 0.00 0.00 66 1012.4
20260506194526 81 81 7.8 16.5 0.00 0.00 0.00 66 1012.4
20260506194031 81 137 7.0 16.5 0.00 0.00 0.00 65 1012.5
20260506193155 82 111 7.0 16.5 0.00 0.00 0.00 65 1012.4
20260506192656 81 98 7.8 16.5 0.00 0.00 0.00 65 1012.4
20260506192156 82 125 5.2 14.8 0.00 0.00 0.00 65 1012.5
20260506191654 81 92 6.1 15.6 0.00 0.00 0.00 65 1012.6
20260506191154 81 106 7.0 15.6 0.00 0.00 0.00 66 1012.6
20260506190654 81 82 7.0 14.8 0.00 0.00 0.00 66 1012.7
20260506190314 82 99 6.1 14.8 0.00 0.00 0.00 64 1012.8
20260506185154 81 116 7.8 13.9 0.00 0.00 0.00 67 1012.9
20260506184654 80 98 9.6 15.6 0.00 0.00 0.00 67 1013.0
20260506184154 80 92 8.7 16.5 0.00 0.00 0.00 66 1013.2
20260506183650 81 71 7.8 16.5 0.00 0.00 0.00 66 1013.1
20260506183151 81 90 7.8 16.5 0.00 0.00 0.00 66 1013.2
20260506182650 81 65 8.7 16.5 0.00 0.00 0.00 65 1013.3
20260506182149 81 111 8.7 15.6 0.00 0.00 0.00 65 1013.3
20260506181651 82 88 7.0 14.8 0.00 0.00 0.00 64 1013.4
20260506181548 82 101 7.0 15.6 0.00 0.00 0.00 65 1013.4
20260506180650 82 105 7.0 15.6 0.00 0.00 0.00 62 1013.4
20260506180151 82 140 6.1 14.8 0.00 0.00 0.00 65 1013.4
20260506175650 82 107 7.0 14.8 0.00 0.00 0.00 64 1013.6
20260506175146 82 91 6.1 14.8 0.00 0.00 0.00 66 1013.7
20260506174646 82 135 6.1 14.8 0.00 0.00 0.00 64 1013.7
20260506174146 82 111 7.0 14.8 0.00 0.00 0.00 64 1013.8
20260506173651 82 157 7.0 14.8 0.00 0.00 0.00 63 1013.8
20260506173149 82 98 7.0 13.0 0.00 0.00 0.00 62 1014.0
20260506172650 82 145 7.0 12.2 0.00 0.00 0.00 63 1014.1
20260506172146 82 103 6.1 12.2 0.00 0.00 0.00 63 1014.3
20260506172000 82 112 5.2 12.2 0.00 0.00 0.00 62 1014.3
20260506171146 82 113 4.3 10.4 0.00 0.00 0.00 64 1014.3
20260506171017 82 115 5.2 12.2 0.00 0.00 0.00 64 1014.3
20260506170142 82 127 4.3 12.2 0.00 0.00 0.00 64 1014.4
20260506165643 81 100 4.3 12.2 0.00 0.00 0.00 65 1014.4
20260506165511 82 139 6.1 13.0 0.00 0.00 0.00 64 1014.4
20260506165010 82 118 5.2 13.0 0.00 0.00 0.00 62 1014.6
20260506164140 83 91 4.3 13.0 0.00 0.00 0.00 61 1014.6
20260506163638 83 130 3.5 13.0 0.00 0.00 0.00 60 1014.6
20260506163459 83 140 4.3 12.2 0.00 0.00 0.00 60 1014.5
20260506162635 83 154 5.2 11.3 0.00 0.00 0.00 53 1014.6
20260506162134 83 108 5.2 10.4 0.00 0.00 0.00 53 1014.6
20260506161632 83 188 4.3 10.4 0.00 0.00 0.00 54 1014.7
20260506161132 83 165 4.3 13.9 0.00 0.00 0.00 53 1014.8
20260506160629 83 98 4.3 13.9 0.00 0.00 0.00 53 1014.7
20260506160132 82 189 3.5 8.7 0.00 0.00 0.00 55 1015.1
20260506160001 82 121 3.5 12.2 0.00 0.00 0.00 56 1015.0
20260506155123 81 97 3.5 12.2 0.00 0.00 0.00 55 1015.0
20260506154619 81 229 3.5 12.2 0.00 0.00 0.00 56 1014.8
20260506154117 81 135 5.2 12.2 0.00 0.00 0.00 56 1014.9
20260506153617 80 122 4.3 8.7 0.00 0.00 0.00 58 1014.9
20260506153114 80 175 4.3 8.7 0.00 0.00 0.00 57 1015.0
20260506152616 80 200 5.2 10.4 0.00 0.00 0.00 59 1015.1
20260506152112 80 159 4.3 10.4 0.00 0.00 0.00 59 1015.2
20260506151615 80 105 3.5 9.6 0.00 0.00 0.00 58 1015.2